Theta_e
343 343 343 343 342 344 343 343 343 343 343 344 343 343 344 345 346 346 346 346 345 345 345 345 344 344 344 344 344 342 341 340 341 340 339 338 337 335 334 333 331 333
345 345 343 344 343 344 344 344 343 344 343 344 345 345 346 346 346 346 346 346 345 345 346 345 344 344 343 343 343 342 340 340 338 340 337 334 335 335 335 333 330 332
346 345 344 343 343 344 345 345 344 345 345 345 346 346 346 346 346 346 346 345 345 345 345 345 344 343 343 343 343 341 339 337 337 338 337 335 335 335 335 334 332 332
346 346 344 344 345 345 345 345 344 344 345 345 345 346 346 346 345 345 345 345 344 344 345 344 343 342 342 342 342 340 340 339 339 338 337 337 337 336 335 334 332 331
345 345 345 344 345 346 346 344 344 344 344 345 346 346 345 344 344 344 344 343 344 343 343 343 343 341 341 341 341 339 338 338 338 337 336 335 335 335 335 334 332 332
346 345 346 344 345 345 345 343 344 344 344 345 345 345 345 344 343 343 343 342 343 342 342 341 341 341 340 339 338 338 337 336 336 335 334 333 333 333 334 333 331 330
345 345 345 345 345 345 344 344 344 343 343 345 346 345 345 344 343 343 342 342 342 341 341 340 340 339 339 338 337 337 337 335 335 334 332 331 331 330 330 329 329 327
346 346 345 345 345 345 344 344 343 343 344 345 344 345 345 343 343 342 341 342 341 340 340 340 339 339 338 337 336 335 335 336 334 332 330 330 329 327 327 328 327 325
346 346 346 345 345 344 344 343 344 344 344 344 344 344 344 343 343 342 341 341 340 340 339 338 338 338 338 337 335 334 334 334 333 331 330 329 327 326 325 325 324 324
346 346 345 345 345 345 344 344 344 344 343 343 343 343 342 343 343 342 341 340 340 339 338 338 338 337 337 336 335 334 333 332 331 329 328 327 325 324 324 323 323 323
346 345 345 345 345 345 344 344 344 343 343 342 342 342 342 342 341 341 340 340 339 338 338 337 336 337 335 335 334 334 333 331 330 328 326 324 324 324 326 323 322 322
345 345 344 344 345 345 345 345 345 344 343 342 342 341 341 341 340 339 339 339 339 338 337 337 336 336 335 334 333 334 332 331 329 328 325 323 324 323 323 322 321 320
345 345 345 345 345 345 346 346 345 344 343 342 342 341 341 340 339 338 338 338 338 338 336 336 336 335 334 334 333 333 332 330 330 326 324 323 323 322 320 320 320 319
345 345 345 345 345 346 346 345 345 344 343 343 341 340 340 339 338 338 339 338 338 337 336 336 335 334 334 334 333 332 330 329 327 323 322 322 322 319 320 319 318 319
345 345 345 345 345 345 345 345 344 344 343 343 341 341 340 339 339 338 338 337 336 336 335 335 335 334 333 333 332 331 330 329 323 322 321 320 319 319 320 318 318 318
344 344 344 345 345 344 344 344 344 343 342 342 341 341 340 339 338 338 338 337 336 335 335 335 334 334 329 322 322 331 329 328 322 321 320 320 319 318 317 317 317 318
343 343 344 343 344 344 344 344 343 343 342 341 340 340 340 338 338 337 337 337 335 335 334 334 334 333 316 310 309 313 326 325 321 320 320 320 319 318 315 316 316 316
343 343 343 343 343 343 344 344 343 343 341 340 340 340 339 339 338 337 337 336 335 335 334 334 334 319 307 309 309 305 315 323 321 320 320 320 319 317 316 315 315 313
342 342 342 342 342 343 343 343 342 342 341 339 339 339 339 338 337 337 337 336 334 333 333 333 332 307 306 305 303 304 307 317 321 320 319 319 318 316 315 315 314 313
341 342 341 342 343 342 343 342 342 341 340 340 340 339 338 338 337 337 337 335 334 333 333 333 328 305 302 302 303 303 304 311 321 321 319 319 317 317 316 315 314 313
336 340 340 340 342 342 342 341 341 340 340 339 339 338 338 337 336 336 336 334 334 334 332 332 323 302 302 301 301 302 301 309 322 321 320 319 318 317 316 315 314 316
339 336 334 340 341 341 341 340 340 340 339 339 338 339 338 338 337 337 335 334 334 333 331 330 317 299 301 301 301 302 300 317 322 320 318 318 317 317 316 316 315 315
339 339 336 339 340 340 340 340 340 339 339 338 337 337 337 336 336 335 335 334 333 332 330 326 313 301 300 300 301 300 305 318 320 319 317 317 316 316 315 315 315 315
338 339 340 340 340 340 340 340 340 339 339 337 337 336 335 335 335 335 334 334 332 331 330 322 313 303 298 299 300 300 309 317 318 318 316 315 316 316 315 315 315 317
336 336 340 339 340 340 340 339 338 338 338 338 337 337 336 336 333 333 333 333 332 331 323 321 314 305 297 299 299 299 310 317 317 317 315 314 314 314 314 314 314 316
334 331 334 337 339 339 339 339 338 338 337 337 337 336 335 334 332 332 332 331 331 331 328 322 316 308 301 297 299 299 305 316 315 316 314 313 313 312 313 312 313 313
Wind_Speed
12 11 12 10 11 10 10 11 9 11 11 10 10 10 11 9 10 10 9 8 9 8 8 8 7 6 6 6 7 6 7 7 6 6 8 7 6 8 7 7 2 4
13 13 11 10 10 9 10 10 9 11 11 11 10 10 9 9 10 10 10 9 9 9 8 8 8 7 7 6 7 7 6 6 6 5 6 6 5 4 5 8 6 4
13 13 13 12 11 11 12 10 10 9 10 11 10 9 9 10 10 10 9 9 9 8 8 7 8 7 8 7 7 7 6 6 6 6 7 8 7 7 5 6 6 7
14 14 13 13 11 12 12 11 10 9 9 10 10 10 9 9 10 11 10 10 9 8 8 7 8 8 8 8 7 6 6 7 6 4 5 4 4 5 7 7 9 9
15 14 14 13 12 12 12 13 12 10 11 10 10 10 9 10 10 11 10 9 9 8 8 8 8 8 8 8 8 7 6 6 6 5 4 4 4 5 5 6 7 9
14 14 14 14 14 13 13 14 12 11 11 11 11 10 9 11 10 10 10 10 9 9 8 8 8 7 8 7 7 7 7 6 6 7 6 7 7 6 5 6 6 7
15 15 15 14 14 13 14 13 12 11 11 9 10 10 9 11 11 11 11 10 11 10 9 8 8 7 7 6 6 6 6 6 7 8 8 5 4 5 4 3 2 3
16 15 15 14 14 14 13 14 12 11 10 10 11 10 9 11 11 10 10 11 11 10 10 10 9 9 8 7 8 7 7 6 6 7 6 5 6 5 4 4 3 4
16 16 16 15 15 13 14 14 13 11 11 12 11 11 10 10 11 10 11 11 10 10 10 10 10 9 8 8 8 8 8 7 7 6 6 6 6 5 5 5 6 7
17 16 16 15 15 13 15 14 12 11 11 11 12 10 11 9 10 10 11 11 10 11 11 10 11 9 9 9 8 8 7 8 7 7 5 4 4 5 7 8 7 7
18 17 17 16 14 12 15 14 13 12 11 12 11 11 11 11 10 10 11 12 11 12 12 11 11 10 9 8 7 7 8 8 7 6 6 5 5 7 7 8 7 6
18 17 18 18 16 14 15 14 13 13 12 11 12 13 12 11 11 11 11 12 11 12 12 11 11 10 10 10 9 8 7 7 7 6 6 7 6 7 5 7 5 6
19 18 17 16 15 14 13 13 13 13 13 13 12 13 13 13 12 12 10 12 12 12 12 11 11 10 10 10 10 10 9 8 7 7 6 6 5 6 4 6 6 6
17 17 16 16 15 14 13 13 13 13 13 12 12 14 14 14 13 13 10 11 12 11 11 10 11 9 10 11 11 10 8 7 6 7 6 5 4 5 4 6 5 5
16 15 14 14 14 14 14 14 14 13 13 12 12 12 11 13 12 13 12 12 11 11 11 10 11 10 9 9 10 10 9 9 9 7 7 6 6 6 5 6 5 5
16 15 15 15 15 15 15 15 14 13 13 13 13 13 12 12 13 13 12 13 12 11 10 9 9 9 11 15 12 9 9 7 8 7 6 6 7 7 5 5 5 4
16 16 15 16 16 15 15 15 15 14 13 13 13 13 14 13 13 13 12 13 12 11 11 9 9 9 17 17 16 14 12 8 9 7 7 7 7 6 7 6 5 6
14 16 16 16 16 16 16 15 14 14 14 14 13 13 13 12 12 13 12 12 11 12 12 9 9 13 19 18 18 14 12 10 9 7 8 7 7 7 7 6 6 7
14 15 16 16 16 16 16 15 15 15 15 15 15 13 12 13 13 13 13 13 13 13 12 10 9 14 18 16 13 15 16 13 8 8 8 7 8 7 8 7 7 8
14 15 16 16 16 16 15 16 15 15 15 14 12 12 13 13 13 14 12 13 12 11 10 10 8 14 18 18 17 16 16 12 8 8 8 8 8 8 8 8 7 9
13 13 15 16 16 16 15 16 16 15 15 14 13 14 14 13 13 13 12 12 11 10 10 11 9 18 20 20 18 17 15 9 6 7 7 7 8 7 8 8 8 8
15 14 13 15 16 17 15 15 15 15 16 14 13 12 11 10 10 11 12 12 12 11 11 10 11 20 19 20 21 19 16 9 5 7 8 7 8 7 8 7 8 7
14 14 14 15 16 16 16 16 16 15 14 12 12 12 12 12 12 12 11 11 12 12 12 9 11 17 20 19 20 21 16 10 7 7 8 7 7 7 7 7 7 7
12 14 15 14 15 15 16 15 15 14 14 12 13 13 13 12 12 11 10 10 12 13 13 11 13 15 21 20 20 21 17 12 8 7 8 7 7 7 6 6 8 13
13 12 13 15 15 15 15 15 15 14 13 13 12 11 11 11 11 11 10 10 10 11 13 13 13 14 19 20 21 20 17 10 9 7 8 8 7 7 6 5 7 10
7 7 7 12 15 15 14 14 13 12 12 13 12 11 10 11 11 11 12 11 11 11 10 12 15 15 16 20 21 21 20 12 8 7 9 9 8 8 7 6 7 7
Wind_Direction
189 195 201 196 192 188 183 187 186 172 174 176 181 180 184 178 178 179 175 179 178 179 175 179 175 178 168 159 158 160 169 177 154 150 152 162 172 170 174 164 149 152
192 195 193 196 191 183 182 187 188 175 175 177 178 179 178 178 175 177 176 178 177 179 178 174 174 174 172 167 160 162 166 147 151 161 156 163 170 157 165 148 165 192
194 194 190 195 191 182 179 186 188 181 176 175 177 177 175 174 173 176 177 177 175 178 180 175 174 177 174 170 167 168 166 159 169 170 164 177 175 175 155 126 172 203
200 195 190 192 194 180 178 184 187 186 175 174 181 176 174 175 171 176 175 175 176 176 179 179 176 181 175 171 170 169 166 161 166 164 158 158 171 164 161 167 183 189
199 195 189 189 193 183 176 185 188 188 182 176 176 175 176 172 172 174 174 176 173 177 178 180 182 182 176 172 171 167 158 157 155 162 161 160 174 175 174 171 178 181
200 196 192 190 191 184 179 182 188 186 184 175 175 172 173 172 174 173 175 175 174 177 177 182 182 180 179 176 170 171 166 163 162 164 175 183 179 175 176 180 182 185
194 192 193 193 193 183 179 180 185 189 185 176 166 172 174 171 177 175 175 176 177 178 179 180 182 176 180 176 173 171 162 177 170 179 187 172 179 180 178 112 178 190
192 191 193 194 191 183 179 178 185 185 179 173 172 171 177 175 179 176 176 177 179 177 177 176 184 177 178 181 180 176 171 174 160 180 186 183 191 194 148 156 176 197
193 190 191 191 189 186 179 181 181 182 178 175 172 173 178 180 183 176 177 175 178 178 178 176 181 175 181 185 183 178 171 170 156 181 186 206 185 150 163 177 195 200
196 189 187 189 191 184 180 179 178 180 178 176 173 169 174 174 186 177 175 179 181 180 176 178 179 178 181 186 183 180 176 172 160 164 180 197 165 172 181 190 196 195
195 188 186 189 191 184 179 179 176 178 178 177 170 167 171 175 187 182 181 183 185 181 178 180 180 176 176 180 184 188 183 175 167 169 173 194 185 186 192 183 189 184
194 188 187 188 186 182 181 182 174 175 177 177 173 167 171 178 188 190 186 185 186 185 182 178 178 175 178 182 188 185 180 175 166 176 180 191 190 187 195 168 170 179
191 188 186 185 182 181 178 179 176 177 177 179 176 173 172 178 187 193 190 186 188 187 187 177 178 175 176 179 193 183 189 178 174 167 173 191 185 186 182 157 164 175
190 186 185 184 181 177 174 178 178 178 177 177 179 179 176 179 181 194 189 188 188 184 185 178 178 175 173 180 198 181 186 183 163 163 174 181 176 181 181 163 172 174
187 188 187 183 182 176 173 178 180 179 177 179 179 178 179 177 181 193 186 189 188 186 184 174 176 176 176 180 196 187 178 186 156 164 170 177 179 185 176 164 174 175
185 185 186 183 182 179 176 179 178 178 178 178 181 181 179 177 185 193 184 184 192 182 184 176 175 175 174 178 190 200 177 172 145 160 179 182 183 182 166 170 173 162
184 184 184 187 184 181 176 178 179 177 180 179 182 183 182 181 185 189 183 184 189 184 189 183 176 170 168 176 191 195 174 163 154 167 188 188 180 177 169 169 165 116
184 182 183 186 187 183 177 179 178 175 178 179 181 187 185 182 184 186 182 180 186 192 191 178 179 154 163 176 197 209 181 145 153 172 188 186 179 176 169 170 150 133
183 185 186 186 186 183 178 178 181 176 177 179 184 188 184 184 185 185 183 183 189 191 184 171 175 153 162 165 164 154 146 143 159 178 182 183 180 177 172 172 154 148
193 186 190 189 187 184 178 180 182 179 178 177 179 185 187 187 187 188 186 186 186 184 173 170 155 161 150 151 153 151 151 149 166 175 182 182 181 180 172 176 168 156
204 192 190 190 188 185 180 181 180 178 179 178 181 186 187 188 184 185 186 184 182 177 169 171 161 163 156 152 154 155 156 155 168 175 179 183 181 182 174 175 171 158
187 190 198 190 188 187 182 181 179 179 179 179 180 184 188 184 183 184 183 186 183 176 172 168 159 164 162 160 158 158 155 166 187 177 180 182 181 180 175 172 169 161
192 183 189 187 193 184 181 180 180 178 179 176 178 181 182 185 185 183 182 181 178 177 174 159 155 167 164 167 162 160 159 175 189 179 180 183 179 179 175 168 169 168
193 188 182 183 184 187 185 183 179 177 178 175 179 179 182 185 177 176 176 178 180 181 177 159 165 170 168 168 164 164 166 174 185 178 182 182 174 176 171 170 171 173
190 187 184 182 185 186 185 181 180 178 177 174 180 179 183 182 178 179 181 182 184 185 171 158 163 168 175 169 166 169 170 175 181 184 180 182 171 171 173 168 174 175
156 155 200 198 187 185 183 182 176 175 174 176 178 179 177 179 175 180 183 189 185 185 174 163 166 166 180 175 169 170 174 173 187 188 181 178 172 171 174 180 171 175